Wind_Speed
28 28 28 28 27 26 26 27 27 27 27 28 29 29 30 31 32 33 34 35 36 37 38 39 41 42 43 44 45 46 47 48 49 49 50 50 50 51 51 51 52 52 52
29 29 29 29 28 28 28 28 28 28 28 29 30 31 31 32 33 34 35 36 37 38 39 40 41 42 42 43 44 44 45 45 46 46 47 47 46 46 46 45 45 46 47
27 27 27 28 28 28 28 28 27 28 28 29 30 32 32 33 34 34 35 36 37 38 38 39 40 40 41 42 42 42 42 42 42 42 42 42 41 41 41 42 42 42 42
26 26 27 27 28 27 27 27 27 28 29 29 30 31 32 32 34 34 35 35 35 36 37 38 38 39 39 39 39 39 38 38 38 37 37 37 37 38 37 37 37 36 36
24 25 25 25 25 25 26 27 27 27 28 29 30 31 31 32 32 33 33 33 34 35 36 36 37 36 36 35 35 34 34 33 33 33 34 34 34 34 33 32 31 31 31
23 23 23 24 24 24 25 25 26 27 28 28 29 29 29 30 30 31 32 32 33 33 33 33 32 32 30 30 29 29 29 29 29 30 29 29 30 30 29 28 28 28 28
22 22 22 22 23 23 23 24 24 25 26 26 26 26 27 28 29 29 30 30 30 30 29 28 26 26 26 26 26 26 26 26 26 26 26 26 26 26 25 25 24 24 24
21 21 21 21 22 23 23 23 22 23 23 24 25 25 25 26 26 26 26 26 25 24 24 24 24 23 23 23 23 23 23 23 23 23 23 23 22 22 22 22 21 20 20
18 19 19 20 20 20 20 20 20 21 21 22 22 23 23 24 23 23 23 23 23 23 23 22 21 21 21 21 21 20 20 20 20 20 20 20 20 19 19 18 17 17 17
17 18 18 18 18 18 18 19 19 19 20 20 20 21 21 21 21 21 21 20 20 20 20 19 19 19 19 19 18 18 19 18 18 18 18 17 17 16 16 16 15 14 14
16 16 16 16 17 17 17 17 17 18 18 18 18 19 19 19 19 19 18 18 18 17 17 17 18 18 17 17 17 17 17 17 16 16 16 16 15 15 15 14 14 13 13
13 14 14 14 14 15 15 15 15 16 16 16 16 16 17 17 17 17 16 16 16 16 16 16 16 16 16 16 16 16 16 15 15 14 14 14 14 14 13 13 12 12 12
11 12 12 12 12 12 13 13 13 13 14 14 14 15 14 14 14 14 14 14 14 14 14 14 14 15 15 15 15 15 15 14 13 13 13 13 12 12 12 12 11 12 12
9 9 10 10 10 11 11 11 11 11 11 11 11 11 11 11 11 11 11 12 12 13 13 13 13 14 14 14 14 13 13 13 12 12 12 11 11 11 11 10 10 11 11
6 7 7 7 8 8 8 8 8 8 8 8 8 8 8 8 9 9 10 10 11 11 11 11 12 12 12 12 12 12 11 11 11 10 10 10 10 9 9 9 9 9 10
3 3 4 5 5 5 5 5 5 6 6 6 6 6 7 7 8 8 9 9 10 10 10 10 10 10 10 10 10 10 9 9 9 9 8 8 8 7 7 8 8 9 9
2 3 3 3 3 3 3 3 3 3 4 4 4 5 6 6 7 8 8 9 9 9 9 9 9 9 9 9 9 9 8 8 8 8 7 7 7 7 7 7 7 8 7
3 4 3 3 2 2 2 2 2 2 3 3 4 5 5 6 7 8 8 8 9 9 9 9 9 9 9 8 8 8 7 7 7 7 6 6 6 6 6 6 7 7 6
4 4 4 4 4 3 3 3 3 3 3 4 4 5 5 6 7 8 8 8 9 9 8 8 8 8 8 7 7 7 7 6 6 6 6 5 5 6 6 6 6 6 6
7 6 6 5 6 6 6 5 5 5 5 5 5 6 7 7 8 8 9 9 9 9 8 8 8 8 7 7 7 6 6 6 5 5 5 5 5 5 6 6 6 6 6
9 8 8 8 8 8 8 8 7 7 7 7 8 8 8 9 9 10 10 10 10 10 9 9 8 8 8 7 7 7 6 6 6 6 6 6 6 6 6 6 6 6 7
11 10 10 10 10 9 9 9 9 9 9 9 9 9 10 10 11 11 12 12 12 12 11 11 10 10 9 9 8 8 7 7 7 7 7 7 7 7 7 7 7 7 7
13 12 12 12 11 11 11 11 11 11 11 11 11 11 12 12 13 13 14 14 14 14 13 13 12 11 11 10 10 9 9 9 8 8 8 8 8 8 8 8 8 8 8
14 13 13 13 13 13 13 12 12 12 12 12 12 12 13 13 14 14 15 15 15 15 14 14 14 13 12 12 11 11 11 10 10 9 9 9 9 9 9 8 8 8 8
14 14 14 14 14 14 13 13 13 13 13 13 13 13 13 14 14 14 15 15 15 15 15 15 15 14 14 13 13 12 12 11 11 10 10 10 9 9 9 8 8 8 8
15 15 14 14 14 14 14 14 13 13 13 13 13 13 13 14 14 14 14 15 15 15 15 15 15 14 14 14 13 13 12 12 11 11 10 9 9 9 9 8 8 7 7
Wind_Direction
249 251 252 254 255 256 257 257 259 261 263 263 262 263 264 266 268 269 270 271 273 275 276 277 278 279 280 281 282 283 283 284 284 285 286 286 287 287 287 286 285 285 286
249 251 253 253 254 255 257 259 260 262 264 264 265 266 268 269 270 271 273 274 276 277 278 279 280 281 282 283 284 285 285 285 286 287 288 288 289 289 289 289 288 288 288
252 253 256 256 256 257 260 261 262 263 265 265 266 269 271 272 273 274 275 276 277 278 280 281 282 283 284 285 285 286 287 288 289 290 290 291 291 291 291 291 291 291 290
254 257 260 257 257 259 261 263 264 265 267 268 270 271 272 274 275 275 277 278 279 280 282 283 284 285 286 286 287 289 289 290 290 291 292 293 294 294 295 295 294 294 294
259 259 260 258 259 261 263 264 266 267 268 270 272 274 276 277 277 278 278 280 281 282 283 285 286 286 287 288 289 290 290 291 293 294 296 296 297 297 297 298 298 298 299
261 262 263 262 264 266 267 268 269 270 272 274 275 276 277 278 279 279 281 282 284 284 285 286 287 287 288 289 290 291 293 295 297 299 299 300 300 301 300 301 302 302 303
264 264 265 266 268 269 271 272 272 273 274 276 277 278 279 279 280 281 281 283 284 285 286 287 287 288 289 291 293 295 297 299 301 301 303 304 304 305 304 304 305 308 309
267 268 268 269 271 272 272 273 273 275 276 277 278 278 279 280 281 281 282 283 284 286 288 289 289 290 291 293 295 297 300 303 304 305 306 308 308 309 308 308 308 310 313
268 267 268 269 271 273 274 275 276 277 278 279 280 281 280 280 280 281 282 283 284 285 286 287 289 291 293 295 297 299 301 303 305 307 311 313 313 314 315 315 315 316 317
269 270 271 272 274 276 276 278 278 278 279 280 281 281 281 281 282 283 284 285 286 286 287 288 290 293 296 298 299 300 302 304 307 309 313 316 320 321 322 324 323 322 323
272 272 273 274 275 276 276 278 278 278 279 281 281 280 281 282 283 284 286 287 287 287 288 290 292 295 297 299 300 300 302 304 307 309 312 316 319 322 322 324 327 328 329
273 274 276 277 275 275 276 278 279 280 280 281 281 282 283 284 284 285 287 287 287 288 290 292 294 296 298 299 300 301 303 306 308 309 312 315 318 321 323 325 328 331 331
274 277 278 276 275 277 278 278 280 281 281 280 281 282 283 285 287 288 289 290 290 291 292 294 296 297 299 300 302 302 304 305 307 310 313 316 320 324 326 329 333 335 335
275 276 278 276 277 277 280 281 283 284 285 286 286 286 287 289 293 295 295 295 296 296 297 298 299 299 300 302 304 305 305 306 308 311 314 317 320 325 329 333 335 338 340
274 279 281 283 282 281 281 283 285 287 290 292 292 293 295 297 301 303 304 303 303 302 301 301 303 305 306 307 307 307 308 308 310 312 314 318 324 328 332 337 341 343 346
296 306 304 301 294 287 285 289 292 294 297 298 298 300 301 305 309 310 312 312 312 311 310 310 310 311 312 313 314 314 314 315 317 317 318 322 329 334 338 343 347 349 354
11 4 351 336 323 309 305 306 308 311 313 313 313 314 316 319 320 321 321 322 322 321 320 319 318 319 320 321 322 322 323 325 328 329 329 330 335 343 350 352 354 358 5
38 31 23 18 17 12 3 358 354 351 348 344 339 335 334 333 333 333 334 333 333 332 332 331 330 330 330 331 331 332 332 333 336 340 342 344 350 355 359 2 5 10 18
51 48 48 50 51 56 59 58 49 35 23 14 6 0 357 355 352 351 350 347 346 345 345 344 343 343 344 345 345 345 345 346 349 354 357 360 3 7 12 16 20 26 32
64 64 64 64 68 71 71 66 58 49 40 32 27 23 20 18 15 11 8 5 3 2 0 359 358 358 358 358 357 358 360 2 4 8 12 14 17 21 24 28 34 40 43
70 71 72 75 74 71 68 62 57 52 49 46 42 38 35 31 28 25 24 22 20 19 18 18 18 17 16 16 16 17 20 23 27 31 34 37 41 41 41 45 50 52 52
73 74 74 74 71 68 65 61 59 57 54 52 49 46 44 41 38 37 36 35 34 33 33 34 34 33 34 33 32 34 36 41 45 48 50 52 53 53 55 57 58 57 54
72 72 72 72 70 68 66 64 62 60 59 58 56 53 50 48 46 44 42 42 41 41 42 42 42 42 43 43 45 48 51 55 56 57 59 60 60 60 61 61 60 58 56
72 72 71 70 69 69 68 67 65 64 62 61 59 57 54 52 51 49 47 46 45 44 44 45 45 47 48 51 53 55 57 58 59 61 62 63 62 61 60 60 60 58 56
70 70 70 70 70 70 69 68 66 65 63 61 60 57 55 54 52 51 49 48 47 47 47 47 48 50 52 53 55 56 57 58 60 61 62 62 59 57 55 55 55 54 54
68 69 69 70 70 69 68 66 65 63 62 60 59 56 54 53 52 50 49 48 48 47 47 47 48 49 51 52 53 54 56 57 57 56 56 55 53 51 50 49 48 47 45
Height
5765 5767 5768 5768 5769 5769 5770 5770 5770 5771 5771 5771 5771 5771 5771 5771 5770 5770 5769 5768 5767 5765 5764 5762 5760 5758 5756 5753 5750 5747 5744 5741 5737 5733 5729 5726 5722 5718 5715 5711 5707 5703 5699
5758 5759 5760 5761 5761 5762 5762 5763 5763 5763 5763 5764 5764 5764 5763 5762 5762 5761 5760 5759 5757 5756 5754 5752 5750 5748 5745 5742 5739 5736 5733 5729 5726 5722 5718 5714 5711 5707 5703 5699 5694 5690 5687
5751 5751 5752 5753 5753 5754 5754 5755 5755 5755 5755 5755 5755 5755 5754 5754 5753 5752 5750 5749 5748 5746 5744 5742 5740 5737 5734 5731 5728 5725 5722 5718 5715 5711 5707 5703 5699 5696 5692 5688 5684 5679 5675
5744 5744 5744 5745 5746 5746 5747 5747 5747 5747 5747 5747 5747 5746 5746 5745 5744 5742 5741 5740 5738 5736 5734 5732 5730 5727 5724 5721 5719 5715 5712 5709 5705 5701 5697 5694 5690 5685 5681 5677 5673 5669 5665
5737 5737 5738 5738 5738 5738 5739 5739 5739 5739 5739 5739 5738 5738 5737 5736 5735 5733 5732 5730 5729 5727 5724 5722 5720 5717 5714 5712 5709 5706 5703 5700 5696 5693 5689 5685 5681 5677 5673 5668 5665 5661 5657
5731 5731 5731 5731 5732 5732 5732 5732 5732 5732 5732 5731 5730 5730 5729 5728 5726 5725 5723 5722 5720 5718 5716 5713 5711 5708 5706 5703 5701 5698 5695 5692 5688 5685 5681 5677 5673 5669 5665 5661 5658 5654 5650
5724 5725 5725 5725 5725 5725 5725 5725 5725 5725 5724 5724 5723 5722 5721 5720 5718 5717 5715 5714 5712 5710 5707 5705 5703 5701 5699 5696 5694 5691 5688 5685 5682 5678 5675 5671 5667 5663 5659 5655 5652 5648 5645
5719 5719 5719 5719 5720 5720 5719 5719 5719 5718 5718 5717 5716 5715 5714 5712 5711 5710 5708 5706 5704 5703 5701 5699 5697 5694 5692 5690 5688 5685 5682 5679 5676 5673 5669 5665 5661 5658 5654 5651 5647 5644 5641
5714 5714 5714 5714 5714 5714 5714 5713 5713 5712 5712 5711 5710 5708 5707 5706 5704 5703 5701 5700 5698 5696 5695 5693 5691 5689 5687 5684 5682 5680 5677 5674 5671 5668 5664 5661 5657 5653 5650 5647 5644 5641 5638
5709 5709 5709 5709 5709 5709 5708 5708 5707 5706 5706 5705 5703 5702 5701 5700 5698 5697 5695 5694 5692 5691 5689 5687 5685 5683 5681 5679 5677 5675 5673 5670 5667 5664 5661 5657 5654 5651 5647 5644 5641 5638 5636
5705 5705 5704 5704 5704 5704 5703 5702 5702 5701 5700 5699 5698 5697 5695 5694 5693 5691 5690 5688 5687 5685 5684 5682 5680 5678 5676 5675 5672 5670 5668 5665 5663 5660 5657 5654 5651 5648 5645 5642 5639 5637 5634
5701 5701 5700 5700 5699 5699 5698 5698 5697 5696 5695 5694 5693 5692 5691 5689 5688 5687 5685 5683 5682 5680 5679 5677 5676 5674 5672 5670 5668 5666 5664 5661 5659 5657 5654 5651 5648 5646 5643 5640 5638 5635 5632
5697 5697 5696 5696 5696 5695 5694 5694 5693 5692 5691 5690 5689 5688 5687 5685 5684 5682 5681 5679 5678 5676 5675 5673 5672 5670 5668 5666 5664 5662 5660 5658 5655 5653 5651 5648 5646 5643 5641 5639 5636 5633 5631
5694 5694 5693 5693 5692 5691 5691 5690 5689 5688 5687 5686 5685 5684 5683 5682 5680 5679 5677 5676 5674 5673 5671 5670 5668 5666 5664 5662 5660 5658 5656 5654 5652 5650 5648 5646 5644 5641 5639 5637 5635 5632 5630
5691 5691 5690 5690 5689 5688 5688 5687 5687 5686 5685 5684 5683 5682 5681 5680 5678 5676 5675 5673 5672 5670 5668 5667 5665 5663 5661 5659 5657 5654 5652 5651 5649 5647 5645 5643 5641 5639 5638 5635 5633 5631 5629
5690 5689 5688 5687 5687 5686 5686 5686 5685 5684 5683 5682 5681 5680 5679 5678 5676 5675 5673 5671 5669 5667 5666 5664 5662 5660 5658 5656 5654 5652 5650 5648 5647 5645 5643 5641 5640 5638 5636 5635 5633 5631 5629
5689 5688 5687 5686 5686 5685 5685 5684 5684 5683 5682 5681 5680 5679 5678 5677 5675 5673 5671 5669 5667 5665 5663 5661 5659 5657 5655 5653 5651 5649 5648 5646 5644 5643 5641 5640 5638 5637 5635 5634 5632 5630 5629
5689 5688 5687 5687 5686 5685 5685 5684 5684 5683 5682 5681 5680 5679 5677 5676 5674 5672 5670 5668 5666 5664 5661 5659 5657 5655 5653 5651 5649 5648 5646 5645 5643 5642 5640 5639 5638 5636 5635 5633 5632 5630 5629
5690 5689 5688 5687 5687 5686 5685 5685 5684 5683 5682 5681 5680 5679 5677 5675 5673 5671 5669 5667 5665 5662 5660 5658 5656 5654 5652 5650 5648 5647 5645 5644 5642 5641 5640 5639 5637 5636 5635 5634 5632 5631 5630
5691 5690 5689 5689 5688 5687 5686 5686 5685 5684 5683 5682 5680 5679 5677 5676 5674 5671 5669 5666 5664 5662 5659 5657 5655 5653 5651 5649 5648 5646 5645 5643 5642 5641 5640 5639 5638 5636 5635 5634 5633 5632 5631
5693 5692 5691 5690 5690 5689 5688 5687 5686 5685 5684 5682 5681 5680 5678 5676 5674 5672 5669 5667 5664 5662 5660 5657 5655 5653 5651 5649 5648 5646 5645 5644 5642 5641 5640 5639 5638 5637 5636 5635 5634 5633 5632
5695 5694 5694 5693 5692 5691 5690 5689 5688 5687 5685 5684 5683 5681 5680 5678 5676 5673 5671 5668 5666 5663 5661 5658 5656 5654 5652 5650 5649 5647 5646 5645 5643 5642 5641 5640 5640 5639 5638 5637 5636 5635 5634
5698 5697 5696 5695 5694 5693 5692 5691 5690 5689 5688 5686 5685 5683 5682 5680 5678 5675 5673 5670 5668 5665 5663 5660 5658 5656 5654 5652 5650 5649 5648 5646 5645 5644 5643 5642 5641 5640 5639 5638 5637 5636 5635
5702 5701 5699 5698 5697 5696 5695 5694 5693 5692 5690 5689 5688 5686 5684 5682 5680 5678 5676 5673 5671 5668 5666 5663 5661 5659 5657 5655 5653 5652 5650 5649 5648 5646 5645 5644 5643 5642 5641 5640 5639 5638 5637
5705 5704 5703 5702 5701 5699 5698 5697 5696 5695 5693 5692 5691 5689 5687 5685 5683 5681 5679 5677 5674 5672 5669 5667 5665 5662 5660 5658 5657 5655 5653 5652 5650 5649 5648 5647 5646 5645 5644 5642 5641 5640 5639
5709 5708 5707 5705 5704 5703 5702 5701 5699 5698 5697 5695 5694 5692 5690 5688 5686 5684 5682 5680 5678 5676 5673 5671 5669 5666 5664 5662 5660 5659 5657 5655 5654 5652 5651 5649 5648 5647 5646 5644 5643 5642 5640